This demonstration page uses our WeatherBlox Daily Observations layout. Learn more.

Left ArrowRight Arrow

39.08367, -84.50855

Hourly Observations for November 19, 2015

Temp ( °F °C ) Dew Point ( °F °C ) Humidity (%) Winds ( mph kmh ) Pressure ( in mb ) Visibility ( mi km ) Precip ( " mm )
12:53 am 00:53 Mostly Cloudy 57 13.9 50 10 78 78 SW 14 22 29.86 1011 10 16 0.00 0.00
1:53 am 01:53 Partly Cloudy 54 12.2 48 8.9 80 80 SSW 10 17 29.86 1011 10 16 0.00 0.00
2:53 am 02:53 Mostly Cloudy 54 12.2 48 8.9 80 80 SSW 12 19 29.90 1013 10 16 0.00 0.00
3:53 am 03:53 Clear 52 11.1 47 8.3 83 83 SSW 9 15 29.91 1013 10 16 0.00 0.00
4:53 am 04:53 Clear 50 10 47 8.3 89 89 SSW 10 17 29.93 1014 10 16 0.00 0.00
5:53 am 05:53 Clear 49 9.4 46 7.8 90 90 SSW 10 17 29.95 1014 10 16 0.00 0.00
6:53 am 06:53 Clear 48 8.9 45 7.2 89 89 S 9 15 29.96 1015 10 16 0.00 0.00
7:53 am 07:53 Sunny 46 7.8 45 7.2 96 96 S 8 13 29.98 1015 10 16 0.00 0.00
8:53 am 08:53 Sunny 51 10.6 47 8.3 86 86 S 10 17 30.00 1016 10 16 0.00 0.00
9:53 am 09:53 Sunny 54 12.2 46 7.8 75 75 SW 14 22 30.02 1017 10 16 0.00 0.00
10:33 am 10:33 Partly Cloudy 55 12.8 45 7.2 69 69 SW 16 26 30.03 1017 10 16 0.00 0.00
10:53 am 10:53 Partly Cloudy 55 12.8 45 7.2 69 69 WSW 17 28 30.03 1017 10 16 0.00 0.00
11:53 am 11:53 Partly Cloudy 57 13.9 46 7.8 67 67 WSW 13 20 30.04 1017 10 16 0.00 0.00
12:53 pm 12:53 Cloudy 57 13.9 44 6.7 62 62 WSW 18 30 30.04 1017 10 16 0.00 0.00
1:53 pm 13:53 Mostly Cloudy 56 13.3 43 6.1 62 62 W 17 28 30.05 1018 10 16 0.00 0.00
2:53 pm 14:53 Mostly Sunny 57 13.9 41 5 55 55 W 17 28 30.06 1018 10 16 0.00 0.00
3:53 pm 15:53 Mostly Sunny 56 13.3 37 2.8 49 49 WSW 16 26 30.09 1019 10 16 0.00 0.00
4:53 pm 16:53 Mostly Sunny 53 11.7 30 -1.1 41 41 W 15 24 30.11 1020 10 16 0.00 0.00
5:53 pm 17:53 Clear 50 10 31 -0.6 48 48 W 12 19 30.14 1021 10 16 0.00 0.00
6:53 pm 18:53 Clear 48 8.9 31 -0.6 52 52 SW 10 17 30.17 1022 10 16 0.00 0.00
7:53 pm 19:53 Clear 47 8.3 28 -2.2 48 48 WSW 9 15 30.20 1023 10 16 0.00 0.00
8:53 pm 20:53 Clear 47 8.3 26 -3.3 44 44 W 10 17 30.23 1024 10 16 0.00 0.00
9:53 pm 21:53 Clear 45 7.2 22 -5.6 40 40 SW 10 17 30.26 1025 10 16 0.00 0.00
10:53 pm 22:53 Clear 42 5.6 22 -5.6 45 45 Calm 30.27 1025 10 16 0.00 0.00
11:53 pm 23:53 Clear 43 6.1 19 -7.2 38 38 W 8 13 30.29 1026 10 16 0.00 0.00

Powered by AerisWeather